Home > Weather > Mohali > Past weeks

Flag for India Weather for the Past 2 Weeks in Mohali, Punjab, India

Now
48 °F

Fog.


Feels Like: 48 °F
Forecast: 48 / 74 °F
Wind: No wind

Location: Amritsar Airport

Current Time: Feb 10, 2016 at 5:00:19 AM

Latest Report: Feb 10, 2016 at 4:00 AM


Visibility: 0 mi

Pressure: 29.92 "Hg

Humidity: 100%

Dew point: 48 °F

Location of MohaliLocation

Historic Weather in Mohali — Graph

°F

Mohali Temperature Yesterday

Maximum temperature yesterday: 70 °F (at 2:00 PM)
Minimum temperature yesterday: 45 °F (at 6:30 AM)
Average temperature yesterday: 56 °F

High & Low Weather Summary for the Past Weeks

 TemperatureHumidityPressure
High72 °F (Feb 4, 1:30 PM)100% (Jan 26, 4:00 AM)30.15 "Hg (Jan 26, 4:00 AM)
Low41 °F (Jan 27, 7:00 AM)26% (Feb 1, 4:30 PM)29.89 "Hg (Feb 6, 3:30 AM)
Average57 °F87%30.02 "Hg
* Reported Jan 26 4:00 AM — Feb 10 3:30 AM, Mohali, Weather by CustomWeather, © 2016

Note: Actual official high and low records may vary slightly from our data, if they occured in-between our weather recording intervals... More about our weather records

Advertising

Mohali Weather History for the Previous 24 Hours

 ConditionsComfort  
Time TempWeatherWind HumidityBarometerVisibility
3:30 AM
Wed, Feb 10
48 °FFog.No wind100%29.92 "Hg0 mi
3:00 AM46 °FFog.No wind100%29.92 "Hg0 mi
2:35 AM45 °FFog.No wind100%29.92 "Hg0 mi
2:00 AM48 °FFog.No wind100%29.92 "Hg0 mi
1:30 AM46 °FFog.No wind100%29.95 "Hg0 mi
1:00 AM48 °FFog.No wind100%29.95 "Hg0 mi
12:30 AM48 °FFog.No wind100%29.95 "Hg0 mi
12:00 AM48 °FFog.No wind100%29.95 "Hg0 mi
11:30 PM
Tue, Feb 9
50 °FFog.No wind100%29.95 "Hg0 mi
11:00 PM52 °FFog.No wind100%29.95 "Hg1 mi
10:30 PM54 °FFog.No wind100%29.95 "Hg1 mi
10:00 PM55 °FFog.No wind100%29.95 "Hg1 mi
9:30 PM55 °FFog.No wind100%29.95 "Hg1 mi
9:00 PM55 °FFog.No wind100%29.95 "Hg1 mi
8:30 PM61 °FFog.No wind100%29.95 "Hg1 mi
8:00 PM59 °FFog.No wind100%29.95 "Hg1 mi
7:30 PM59 °FFog.No wind100%29.95 "Hg1 mi
7:00 PM61 °FFog.No wind100%29.95 "Hg1 mi
6:00 PM66 °FFog.No wind83%29.95 "Hg1 mi
5:30 PM68 °FFog.No wind78%29.95 "Hg2 mi
5:00 PM70 °FHaze.5 mph69%29.95 "Hg2 mi
2:30 PM70 °FHaze.8 mph60%30.01 "Hg2 mi
2:00 PM70 °FHaze.9 mph60%30.01 "Hg2 mi
1:00 PM68 °FHaze.8 mph64%30.01 "Hg2 mi
12:00 PM63 °FFog.3 mph83%30.04 "Hg1 mi
11:30 AM61 °FFog.No wind88%30.07 "Hg1 mi
11:00 AM57 °FFog.No wind100%30.07 "Hg1 mi
10:00 AM48 °FFog.No wind100%30.04 "Hg0 mi
9:00 AM45 °FFog.No wind100%30.04 "Hg0 mi
8:30 AM45 °FFog.No wind100%30.04 "Hg0 mi
7:30 AM45 °FFog.No wind100%30.01 "Hg0 mi
6:30 AM45 °FFog.No wind100%30.01 "Hg0 mi
5:30 AM46 °FFog.No wind100%30.01 "Hg0 mi
Weather by CustomWeather, © 2016

See weather overviewHow to use our weather pages